Location: Cambridge
(43.3830°N, 80.3170°W)
Time: 03:42:46
(UTC-05:00)

Envisat - Pass Details

Date: 23 October 2019
Orbit: 764 x 766 km, 98.1° (Epoch: 18 November)

Event Time Altitude Azimuth Distance (km) Brightness Sun altitude
Rises 07:03:20 0° 30° (NNE) 3,240 6.6 -8.2°
Reaches altitude 10° 07:06:29 10° 50° (NE) 2,307 6.1 -7.6°
Maximum altitude 07:09:43 17° 90° (E) 1,871 6.4 -7.1°
Drops below altitude 10° 07:12:56 10° 130° (SE) 2,296 6.5 -6.5°
Sets 07:16:03 0° 151° (SSE) 3,216 6.9 -5.9°
